Tehachapi, CA

3:39 PM PST on February 25, 2017 (GMT -0800)
Tehachapi Municipal

Weather History for KTSP - December, 2012

Change the Weather History Date:

Friday, December 21, 2012

  Actual Average Record
Temperature  
Mean Temperature 40 °F -  
Max Temperature 53 °F 49 °F 57 °F (2011)
Min Temperature 26 °F 26 °F 19 °F (2011)
Degree Days  
Heating Degree Days 26    
Moisture  
Dew Point 8 °F    
Average Humidity 31    
Maximum Humidity 55    
Minimum Humidity 14    
Precipitation  
Precipitation 0.00 in - - ()
Sea Level Pressure  
Sea Level Pressure 30.07 in    
Wind  
Wind Speed 13 mph (ESE)    
Max Wind Speed 22 mph    
Max Gust Speed 28 mph    
Visibility 10 miles    
Events      
Averages and records for this station are not official NWS values.
T = Trace of Precipitation, MM = Missing Value Source: NWS Daily Summary

Daily Weather History Graph

Daily Weather History Graph

Search for Another Location

Airport or City:

Trip Planner

Search our weather history database for the weather conditions in past years. The results will help you decide how hot, cold, wet, or windy it might be!

Date:

Astronomy

Dec. 21, 2012 Rise Set
Actual Time 6:58 AM PST 4:45 PM PST
Civil Twilight 6:30 AM PST 5:14 PM PST
Nautical Twilight 5:58 AM PST 5:45 PM PST
Astronomical Twilight 5:27 AM PST 6:16 PM PST
Moon 12:27 PM PST (12/21) 12:59 AM PST (12/21)
Length of Visible Light 10h 43m
Length of Day
9h 47m
Waxing Gibbous, 66% of the Moon is Illuminated
Dec 21
Waxing Gibbous
Dec 28
Full
Jan 4
Last Quarter
Jan 11
New
Jan 18
First Quarter

Hourly Weather History & Observations

Time (PST) Temp. Windchill Dew Point Humidity Pressure Visibility Wind Dir Wind Speed Gust Speed Precip Events Conditions
12:15 AM 32.0 °F 22.1 °F 6.8 °F 35% 30.13 in 10.0 mi East 13.8 mph 21.9 mph N/A   Clear
12:35 AM 32.0 °F 20.8 °F 6.8 °F 35% 30.12 in 10.0 mi East 17.3 mph 24.2 mph N/A   Clear
12:55 AM 32.0 °F 20.1 °F 6.8 °F 35% 30.11 in 10.0 mi East 19.6 mph 25.3 mph N/A   Clear
1:15 AM 33.8 °F 23.2 °F 5.0 °F 30% 30.11 in 10.0 mi East 17.3 mph 27.6 mph N/A   Clear
1:35 AM 33.8 °F 22.8 °F 5.0 °F 30% 30.10 in 10.0 mi ESE 18.4 mph 27.6 mph N/A   Clear
1:55 AM 32.0 °F 19.5 °F 6.8 °F 35% 30.10 in 10.0 mi ESE 21.9 mph 27.6 mph N/A   Clear
2:15 AM 32.0 °F 19.5 °F 5.0 °F 32% 30.10 in 10.0 mi ESE 21.9 mph 25.3 mph N/A   Clear
2:35 AM 32.0 °F 22.5 °F 5.0 °F 32% 30.10 in 10.0 mi East 12.7 mph 25.3 mph N/A   Clear
2:55 AM 32.0 °F 21.6 °F 5.0 °F 32% 30.09 in 10.0 mi ESE 15.0 mph 24.2 mph N/A   Clear
3:15 AM 32.0 °F 22.5 °F 5.0 °F 32% 30.09 in 10.0 mi East 12.7 mph 19.6 mph N/A   Clear
3:35 AM 32.0 °F 22.5 °F 5.0 °F 32% 30.09 in 10.0 mi ESE 12.7 mph 18.4 mph N/A   Clear
3:55 AM 32.0 °F 20.5 °F 5.0 °F 32% 30.08 in 10.0 mi ESE 18.4 mph - N/A   Clear
4:15 AM 32.0 °F 21.2 °F 5.0 °F 32% 30.08 in 10.0 mi ESE 16.1 mph - N/A   Clear
4:35 AM 32.0 °F 20.5 °F 5.0 °F 32% 30.07 in 10.0 mi ESE 18.4 mph 21.9 mph N/A   Clear
4:55 AM 32.0 °F 21.6 °F 5.0 °F 32% 30.07 in 10.0 mi ESE 15.0 mph - N/A   Clear
5:15 AM 32.0 °F 20.8 °F 5.0 °F 32% 30.07 in 10.0 mi ESE 17.3 mph - N/A   Clear
5:35 AM 33.8 °F 22.5 °F 5.0 °F 30% 30.06 in 10.0 mi ESE 19.6 mph - N/A   Clear
5:55 AM 33.8 °F 23.9 °F 5.0 °F 30% 30.07 in 10.0 mi ESE 15.0 mph 23.0 mph N/A   Clear
6:15 AM 35.6 °F 25.9 °F 5.0 °F 28% 30.07 in 10.0 mi ESE 16.1 mph 25.3 mph N/A   Clear
6:35 AM 33.8 °F 22.8 °F 5.0 °F 30% 30.07 in 10.0 mi ESE 18.4 mph - N/A   Clear
6:55 AM 33.8 °F 23.2 °F 5.0 °F 30% 30.07 in 10.0 mi ESE 17.3 mph - N/A   Clear
7:15 AM 35.6 °F 25.5 °F 5.0 °F 28% 30.07 in 10.0 mi ESE 17.3 mph 23.0 mph N/A   Clear
7:35 AM 37.4 °F 28.5 °F 5.0 °F 26% 30.08 in 10.0 mi ESE 15.0 mph 23.0 mph N/A   Clear
7:55 AM 37.4 °F 29.3 °F 6.8 °F 28% 30.08 in 10.0 mi ESE 12.7 mph - N/A   Clear
8:15 AM 37.4 °F 28.2 °F 6.8 °F 28% 30.09 in 10.0 mi ESE 16.1 mph - N/A   Clear
8:35 AM 39.2 °F 29.6 °F 6.8 °F 26% 30.09 in 10.0 mi ESE 19.6 mph 25.3 mph N/A   Clear
8:55 AM 39.2 °F 29.8 °F 6.8 °F 26% 30.09 in 10.0 mi ESE 18.4 mph 23.0 mph N/A   Clear
9:15 AM 41.0 °F 32.8 °F 6.8 °F 24% 30.09 in 10.0 mi ESE 16.1 mph - N/A   Clear
9:35 AM 44.6 °F 38.4 °F 6.8 °F 21% 30.10 in 10.0 mi ESE 12.7 mph - N/A   Clear
9:55 AM 44.6 °F 39.2 °F 6.8 °F 21% 30.10 in 9.0 mi East 10.4 mph 18.4 mph N/A   Clear
10:15 AM 48.2 °F - 6.8 °F 19% 30.10 in 8.0 mi ESE 11.5 mph - N/A   Clear
10:35 AM 50.0 °F - 5.0 °F 16% 30.10 in 9.0 mi ESE 13.8 mph - N/A   Clear
10:55 AM 50.0 °F - 5.0 °F 16% 30.09 in 10.0 mi ESE 10.4 mph - N/A   Clear
11:15 AM 50.0 °F - 5.0 °F 16% 30.08 in 10.0 mi East 10.4 mph - N/A   Clear
11:35 AM 50.0 °F - 3.2 °F 15% 30.07 in 10.0 mi ESE 9.2 mph - N/A   Clear
11:55 AM 51.8 °F - 5.0 °F 15% 30.06 in 10.0 mi ESE 6.9 mph - N/A   Clear
12:15 PM 51.8 °F - 6.8 °F 16% 30.05 in 10.0 mi SSE 10.4 mph - N/A   Clear
12:35 PM 51.8 °F - 5.0 °F 15% 30.04 in 10.0 mi ESE 11.5 mph - N/A   Clear
12:55 PM 51.8 °F - 6.8 °F 16% 30.05 in 10.0 mi SE 8.1 mph - N/A   Clear
1:15 PM 50.0 °F - 8.6 °F 19% 30.04 in 10.0 mi ESE 10.4 mph - N/A   Clear
1:35 PM 53.6 °F - 6.8 °F 15% 30.03 in 10.0 mi SE 12.7 mph - N/A   Clear
1:55 PM 53.6 °F - 6.8 °F 15% 30.04 in 10.0 mi SE 9.2 mph - N/A   Clear
2:15 PM 53.6 °F - 6.8 °F 15% 30.03 in 10.0 mi SE 10.4 mph - N/A   Clear
2:35 PM 53.6 °F - 6.8 °F 15% 30.03 in 10.0 mi East 9.2 mph - N/A   Clear
2:55 PM 51.8 °F - 6.8 °F 16% 30.04 in 10.0 mi SE 9.2 mph - N/A   Clear
3:15 PM 53.6 °F - 5.0 °F 14% 30.04 in 10.0 mi ESE 9.2 mph - N/A   Clear
3:35 PM 53.6 °F - 5.0 °F 14% 30.04 in 10.0 mi ESE 9.2 mph - N/A   Clear
3:55 PM 51.8 °F - 6.8 °F 16% 30.04 in 10.0 mi ESE 9.2 mph - N/A   Clear
4:15 PM 48.2 °F - 6.8 °F 19% 30.05 in 10.0 mi SE 10.4 mph - N/A   Clear
4:35 PM 44.6 °F 38.1 °F 10.4 °F 25% 30.04 in 10.0 mi SE 13.8 mph - N/A   Clear
4:55 PM 41.0 °F 34.3 °F 10.4 °F 29% 30.04 in 10.0 mi ESE 11.5 mph - N/A   Clear
5:15 PM 37.4 °F 30.3 °F 10.4 °F 33% 30.04 in 10.0 mi SE 10.4 mph - N/A   Clear
5:35 PM 41.0 °F 36.4 °F 6.8 °F 24% 30.05 in 10.0 mi SE 6.9 mph - N/A   Clear
5:55 PM 37.4 °F 31.4 °F 10.4 °F 33% 30.05 in 10.0 mi ESE 8.1 mph - N/A   Clear
6:15 PM 35.6 °F 30.7 °F 8.6 °F 33% 30.06 in 10.0 mi West 5.8 mph - N/A   Clear
6:35 PM 35.6 °F 31.7 °F 10.4 °F 35% 30.06 in 10.0 mi SE 4.6 mph - N/A   Clear
6:55 PM 32.0 °F 27.5 °F 10.4 °F 41% 30.06 in 10.0 mi South 4.6 mph - N/A   Clear
7:15 PM 32.0 °F 28.7 °F 10.4 °F 41% 30.06 in 10.0 mi ESE 3.5 mph - N/A   Clear
7:35 PM 32.0 °F 27.5 °F 14.0 °F 48% 30.06 in 10.0 mi SE 4.6 mph - N/A   Clear
7:55 PM 28.4 °F - 14.0 °F 55% 30.06 in 10.0 mi Calm Calm - N/A   Clear
8:15 PM 30.2 °F 26.7 °F 12.2 °F 47% 30.07 in 10.0 mi West 3.5 mph - N/A   Clear
8:35 PM 28.4 °F - 12.2 °F 51% 30.07 in 10.0 mi Calm Calm - N/A   Clear
8:55 PM 28.4 °F - 12.2 °F 51% 30.07 in 10.0 mi Calm Calm - N/A   Clear
9:15 PM 30.2 °F - 12.2 °F 47% 30.07 in 10.0 mi Calm Calm - N/A   Clear
9:35 PM 28.4 °F - 12.2 °F 51% 30.07 in 10.0 mi Calm Calm - N/A   Clear
9:55 PM 28.4 °F - 10.4 °F 47% 30.07 in 10.0 mi Calm Calm - N/A   Clear
10:15 PM 28.4 °F - 10.4 °F 47% 30.07 in 10.0 mi Calm Calm - N/A   Clear
10:35 PM 26.6 °F - 12.2 °F 55% 30.06 in 10.0 mi North - - N/A   Clear
10:55 PM 26.6 °F - 12.2 °F 55% 30.07 in 10.0 mi Calm Calm - N/A   Clear
11:15 PM 28.4 °F - 12.2 °F 51% 30.06 in 10.0 mi Calm Calm - N/A   Clear
11:35 PM 26.6 °F - 12.2 °F 55% 30.06 in 10.0 mi Calm Calm - N/A   Clear
11:55 PM 26.6 °F 21.2 °F 12.2 °F 55% 30.06 in 10.0 mi SE 4.6 mph - N/A   Clear